Location: Unspecified
(0.0000°N, 0.0000°E)
Time: 19:37:27
(UTC+00:00)

Vanguard 1 - Pass Details

Date: 22 April 2026
Orbit: 654 x 3817 km, 34.2° (Epoch: 18 May)

Event Time Altitude Azimuth Distance (km) Brightness Sun altitude
Rises 02:37:30 0° 316° (NW) 7,809 14.5 -48.8°
Reaches altitude 10° 02:45:23 10° 329° (NNW) 6,442 14.1 -46.9°
Maximum altitude 02:59:06 23° 14° (NNE) 4,415 13.5 -43.6°
Drops below altitude 10° 03:08:35 10° 62° (ENE) 4,409 14.0 -41.3°
Sets 03:12:29 0° 77° (ENE) 4,940 14.5 -40.4°
